{"data":{"norad_id":65478,"epoch":"2026-05-24T19:34:48.722016Z","epoch_age_seconds":88005,"freshness":"FRESH","line1":"1 65478U 25195W   26144.81584169  .00030296  00000+0  98387-3 0  9998","line2":"2 65478  53.1587 264.2444 0001114  71.8590 288.2533 15.31706295 41638","mean_motion":15.31706295,"eccentricity":0.0001114,"inclination_deg":53.1587,"raan_deg":264.2444,"arg_perigee_deg":71.859,"mean_anomaly_deg":288.2533,"bstar":0.00098387,"rev_number":4163,"period_min":94.01280158609,"perigee_km":469.95826741563,"apogee_km":471.48419302933,"semimajor_km":6848.8582302225,"source":"CELESTRAK","updated_at":"2026-05-25T13:38:20.816233Z"}}